User: anonymous
Location: Goheenville
(40.9070°N, 79.3720°W)
Time: 07:22:28
(UTC-04:00)
Language:

Cosmos 1727 Rocket - Orbit

View from above orbital plane
View from above orbital plane
View from above satellite
View from above satellite

Ground track
Ground track

The orbit data is extracted from the following two-line orbital elements,

1 16511U 86008B   14202.82144801  .00000049  00000-0  35354-4 0  5389
2 16511 082.9461 286.9867 0024019 011.1426 128.3208 13.75764974430333
Epoch (UTC): 21 July 2014 19:42:53
Eccentricity: 0.0024019
inclination: 82.9461°
perigee height: 961 km
apogee height: 996 km
right ascension of ascending node: 286.9867°
argument of perigee: 11.1426°
revolutions per day: 13.75764974
mean anomaly at epoch: 128.3208°
orbit number at epoch: 43033

The dashed part of the orbit path shows where the satellite is in the earth's shadow,  

DLR